Location: *
(50.5492°N, 7.7469°E)
Time: 02:38:14
(UTC+00:00)

STARLINK-57 - Pass Details

Date: 21 October 2019
Orbit: 548 x 551 km, 53.0° (Epoch: 14 November)

Event Time Altitude Azimuth Distance (km) Brightness Sun altitude
Rises 17:25:51 0° 271° (W) 2,716 9.4 -10.2°
Reaches altitude 10° 17:28:06 10° 274° (W) 1,823 7.8 -10.6°
Maximum altitude 17:32:12 61° 356° (N) 626 3.9 -11.2°
Enters shadow 17:35:18 17° 74° (ENE) 1,433 5.1 -11.7°
